AC7PD Weather Reports


time (UTC)temp
C
wind
direction
speed
KPH
gust
KPH
rain 1hr
cm
rain 24hr
cm
rain mn
cm
humidity
%
barometer
mb
20260507092005 10 219 1.6 3.2 0.00 0.03 0.00 90 1021.0
20260507090006 10 219 0.0 0.0 0.00 0.03 0.00 90 1021.0
20260507081005 10 218 4.8 4.8 0.00 0.03 0.00 91 1020.9
20260507080006 10 253 1.6 4.8 0.00 0.03 0.00 91 1021.0
20260507075005 10 233 1.6 4.8 0.00 0.03 0.00 91 1021.0
20260507074005 10 227 1.6 3.2 0.00 0.03 0.00 90 1020.9
20260507073005 11 227 0.0 0.0 0.00 0.03 0.00 90 1021.0
20260507072005 11 227 0.0 0.0 0.00 0.03 0.00 90 1020.8
20260507071005 11 227 0.0 1.6 0.00 0.03 0.00 89 1020.8
20260507070010 11 227 0.0 0.0 0.00 0.03 0.00 89 1020.9
20260507065005 11 227 0.0 3.2 0.00 0.03 0.03 88 1020.8
20260507063005 11 250 1.6 4.8 0.00 0.03 0.03 86 1020.8
20260507062005 11 233 3.2 4.8 0.00 0.03 0.03 85 1021.0
20260507060005 11 313 0.0 3.2 0.00 0.03 0.03 83 1020.9
20260507055005 12 258 1.6 3.2 0.00 0.03 0.03 83 1020.9
20260507054006 12 205 0.0 8.0 0.00 0.03 0.03 83 1020.8
20260507053005 12 239 3.2 8.0 0.00 0.03 0.03 82 1020.8
20260507052005 12 221 3.2 4.8 0.00 0.03 0.03 82 1020.9
20260507051005 12 239 1.6 4.8 0.00 0.03 0.03 82 1020.9
20260507050006 12 248 3.2 4.8 0.00 0.03 0.03 82 1020.8
20260507045005 12 229 0.0 3.2 0.00 0.03 0.03 82 1020.8
20260507044006 12 229 1.6 1.6 0.00 0.03 0.03 82 1020.8
20260507043005 12 223 0.0 3.2 0.00 0.03 0.03 82 1020.8
20260507042005 12 228 3.2 4.8 0.00 0.03 0.03 84 1020.9
20260507040005 12 188 0.0 1.6 0.00 0.03 0.03 84 1020.8
20260507033005 12 87 0.0 0.0 0.00 0.03 0.03 83 1020.3
20260507031005 12 96 0.0 3.2 0.00 0.03 0.03 82 1020.1
20260507030005 12 74 1.6 3.2 0.00 0.03 0.03 82 1020.2
20260507025005 12 74 1.6 1.6 0.00 0.03 0.03 82 1020.2
20260507024005 12 74 1.6 3.2 0.00 0.03 0.03 82 1020.1
20260507023006 12 74 1.6 3.2 0.00 0.03 0.03 81 1020.0
20260507022005 12 74 0.0 0.0 0.00 0.03 0.03 81 1020.1
20260507021005 12 74 0.0 3.2 0.00 0.03 0.03 81 1020.1
20260507020005 12 64 0.0 0.0 0.00 0.03 0.03 81 1020.1
20260507015005 12 64 0.0 3.2 0.00 0.03 0.03 81 1020.1
20260507014005 12 64 1.6 3.2 0.00 0.03 0.03 81 1020.0
20260507013005 12 97 0.0 4.8 0.00 0.03 0.03 81 1020.0
20260507012005 12 74 3.2 4.8 0.00 0.03 0.03 80 1020.0
20260507011005 13 76 0.0 3.2 0.00 0.03 0.03 80 1020.1
20260507010005 13 78 1.6 3.2 0.00 0.03 0.03 79 1020.1
20260507005005 13 352 0.0 1.6 0.00 0.03 0.03 79 1020.2
20260507004005 13 348 0.0 3.2 0.00 0.03 0.03 79 1020.2
20260507002005 13 87 3.2 4.8 0.00 0.03 0.03 79 1020.3
20260507000005 13 5 0.0 3.2 0.00 0.03 0.03 78 1020.3
20260506235005 13 345 0.0 1.6 0.00 0.03 0.03 78 1020.4
20260506234005 13 344 1.6 4.8 0.00 0.03 0.03 78 1020.3
20260506233005 13 338 1.6 3.2 0.00 0.03 0.03 79 1020.3
20260506232005 13 336 1.6 3.2 0.00 0.03 0.03 79 1020.3
20260506231005 13 319 3.2 4.8 0.00 0.03 0.03 78 1020.3
20260506230005 13 327 1.6 3.2 0.00 0.03 0.03 80 1020.3
20260506225004 12 346 1.6 4.8 0.00 0.03 0.03 80 1020.3
20260506224004 12 333 1.6 3.2 0.00 0.03 0.03 81 1020.4
20260506221005 12 355 1.6 4.8 0.00 0.03 0.03 82 1020.5
20260506220012 12 336 1.6 4.8 0.00 0.03 0.03 83 1020.5
20260506215006 12 315 1.6 4.8 0.00 0.03 0.03 82 1020.5
20260506214005 13 328 3.2 8.0 0.00 0.03 0.03 83 1020.5
20260506213005 13 314 3.2 4.8 0.00 0.03 0.03 83 1020.4
20260506212005 13 271 0.0 4.8 0.00 0.03 0.03 83 1020.5
20260506211005 13 227 1.6 8.0 0.00 0.03 0.03 84 1020.4
20260506210005 13 208 3.2 4.8 0.00 0.03 0.03 84 1020.4
20260506205005 12 208 4.8 8.0 0.00 0.03 0.03 84 1020.4
20260506204005 12 231 3.2 8.0 0.00 0.03 0.03 85 1020.4
20260506203005 12 233 4.8 4.8 0.00 0.03 0.03 85 1020.3
20260506201005 12 245 4.8 9.7 0.00 0.03 0.03 85 1020.3
20260506200005 12 213 8.0 12.9 0.00 0.03 0.03 85 1020.3
20260506194005 12 214 1.6 4.8 0.00 0.03 0.03 85 1020.1
20260506193005 12 225 3.2 4.8 0.00 0.03 0.03 86 1020.2
20260506192005 12 230 3.2 8.0 0.00 0.03 0.03 86 1020.2
20260506191005 12 236 1.6 9.7 0.00 0.03 0.03 86 1020.2
20260506190006 12 261 3.2 4.8 0.00 0.03 0.03 87 1020.2
20260506184005 12 221 1.6 8.0 0.00 0.03 0.03 87 1020.2
20260506182005 12 220 3.2 4.8 0.00 0.03 0.03 88 1020.0
20260506181005 12 243 4.8 8.0 0.00 0.03 0.03 89 1020.0
20260506180005 12 225 1.6 3.2 0.00 0.03 0.03 90 1020.0
20260506175005 11 316 1.6 4.8 0.00 0.03 0.03 90 1020.1
20260506174005 11 230 1.6 4.8 0.00 0.03 0.03 90 1020.1
20260506173005 11 308 1.6 4.8 0.00 0.03 0.03 90 1020.1
20260506172005 11 230 3.2 4.8 0.00 0.03 0.03 90 1020.0
20260506170005 11 224 4.8 11.3 0.00 0.03 0.03 91 1019.9
20260506164005 11 177 3.2 4.8 0.00 0.03 0.03 92 1019.5
20260506163005 11 198 0.0 4.8 0.00 0.03 0.03 93 1019.5
20260506162006 11 200 3.2 4.8 0.00 0.03 0.03 93 1019.5
20260506161005 11 194 3.2 4.8 0.03 0.03 0.03 93 1019.7
20260506160005 11 261 3.2 8.0 0.03 0.03 0.03 93 1019.7
20260506154004 11 234 1.6 4.8 0.03 0.03 0.03 94 1019.5
20260506152004 11 162 1.6 4.8 0.03 0.03 0.03 93 1019.6
20260506151005 11 247 1.6 3.2 0.00 0.00 0.00 93 1019.6
20260506150005 11 260 3.2 4.8 0.00 0.00 0.00 93 1019.8
20260506145005 11 187 4.8 4.8 0.00 0.00 0.00 93 1019.4
20260506144004 11 184 4.8 8.0 0.00 0.00 0.00 93 1019.2
20260506143005 11 230 3.2 4.8 0.00 0.00 0.00 93 1019.4
20260506142005 11 202 3.2 4.8 0.00 0.00 0.00 93 1019.4
20260506141005 11 195 1.6 4.8 0.00 0.00 0.00 93 1019.4
20260506135005 11 218 0.0 3.2 0.00 0.00 0.00 93 1019.4
20260506134005 11 263 1.6 3.2 0.00 0.00 0.00 93 1019.3
20260506133005 11 192 1.6 3.2 0.00 0.00 0.00 93 1018.8
20260506132005 11 211 0.0 4.8 0.00 0.00 0.00 92 1019.0
20260506131005 11 188 1.6 4.8 0.00 0.00 0.00 92 1018.8
20260506130005 11 192 3.2 8.0 0.00 0.00 0.00 92 1018.9
20260506124004 11 238 1.6 4.8 0.00 0.00 0.00 92 1018.7
20260506122004 11 223 1.6 3.2 0.00 0.00 0.00 91 1018.7
20260506121005 11 213 0.0 3.2 0.00 0.00 0.00 91 1018.5
20260506120005 11 188 1.6 8.0 0.00 0.00 0.00 90 1018.4
20260506115005 11 221 3.2 9.7 0.00 0.00 0.00 90 1018.4
20260506114004 11 238 4.8 4.8 0.00 0.00 0.00 89 1018.5
20260506113005 11 171 4.8 4.8 0.00 0.00 0.00 88 1018.5
20260506112005 11 190 0.0 4.8 0.00 0.00 0.00 88 1018.4
20260506105005 12 250 0.0 1.6 0.00 0.00 0.00 87 1018.2
20260506104005 12 250 1.6 3.2 0.00 0.00 0.00 87 1018.1
20260506103005 12 306 0.0 4.8 0.00 0.00 0.00 87 1018.0
20260506102005 12 248 4.8 4.8 0.00 0.00 0.00 87 1018.0
20260506101005 12 232 3.2 4.8 0.00 0.00 0.00 86 1017.8
20260506100005 12 261 4.8 4.8 0.00 0.00 0.00 87 1017.7
20260506095004 12 249 1.6 4.8 0.00 0.00 0.00 87 1017.7
20260506094004 12 248 0.0 3.2 0.00 0.00 0.00 87 1017.6
20260506093004 12 242 4.8 4.8 0.00 0.00 0.00 87 1017.5